| time (UTC) | temp C | wind direction | speed KPH | gust KPH | rain 1hr cm | rain 24hr cm | rain mn cm | humidity % | barometer mb |
| 20260906124550 | 13 | 140 | 1.6 | 4.8 | 0.00 | 0.00 | 0.00 | 90 | 1015.4 |
| 20260906123056 | 13 | 0 | 0.0 | 0.0 | 0.00 | 0.00 | 0.00 | 90 | 1015.3 |
| 20260906121556 | 13 | 0 | 0.0 | 0.0 | 0.00 | 0.00 | 0.00 | 90 | 1015.4 |
| 20260906120109 | 13 | 0 | 0.0 | 0.0 | 0.00 | 0.00 | 0.00 | 90 | 1015.5 |
| 20260906114558 | 13 | 0 | 0.0 | 0.0 | 0.00 | 0.00 | 0.00 | 89 | 1015.4 |
| 20260906113049 | 13 | 0 | 0.0 | 3.2 | 0.00 | 0.00 | 0.00 | 89 | 1015.3 |
| 20260906111606 | 13 | 0 | 0.0 | 0.0 | 0.00 | 0.00 | 0.00 | 88 | 1015.5 |
| 20260906110048 | 13 | 0 | 0.0 | 0.0 | 0.00 | 0.00 | 0.00 | 88 | 1015.5 |
| 20260906104545 | 13 | 0 | 0.0 | 0.0 | 0.00 | 0.00 | 0.00 | 88 | 1015.3 |
| 20260906103057 | 13 | 0 | 0.0 | 0.0 | 0.00 | 0.00 | 0.00 | 87 | 1015.4 |
| 20260906101554 | 13 | 0 | 0.0 | 0.0 | 0.00 | 0.00 | 0.00 | 87 | 1015.3 |
| 20260906100058 | 13 | 0 | 0.0 | 0.0 | 0.00 | 0.00 | 0.00 | 87 | 1015.4 |
| 20260906094548 | 13 | 0 | 0.0 | 0.0 | 0.00 | 0.00 | 0.00 | 87 | 1015.4 |
| 20260906093050 | 13 | 0 | 0.0 | 0.0 | 0.00 | 0.00 | 0.00 | 87 | 1015.4 |
| 20260906091550 | 13 | 0 | 0.0 | 1.6 | 0.00 | 0.00 | 0.00 | 86 | 1015.2 |
| 20260906090059 | 13 | 0 | 0.0 | 6.4 | 0.00 | 0.00 | 0.00 | 84 | 1015.3 |
| 20260906084554 | 13 | 0 | 1.6 | 4.8 | 0.00 | 0.00 | 0.00 | 85 | 1015.4 |
| 20260906083054 | 13 | 122 | 1.6 | 8.0 | 0.00 | 0.00 | 0.00 | 86 | 1015.4 |
| 20260906081558 | 13 | 0 | 0.0 | 0.0 | 0.00 | 0.00 | 0.00 | 86 | 1015.2 |
| 20260906080107 | 13 | 0 | 0.0 | 0.0 | 0.00 | 0.00 | 0.00 | 86 | 1015.3 |
| 20260906074600 | 13 | 0 | 0.0 | 3.2 | 0.00 | 0.00 | 0.00 | 85 | 1015.4 |
| 20260906073051 | 13 | 0 | 0.0 | 4.8 | 0.00 | 0.00 | 0.00 | 86 | 1015.5 |
| 20260906071557 | 13 | 0 | 0.0 | 0.0 | 0.00 | 0.00 | 0.00 | 85 | 1015.3 |
| 20260906070056 | 13 | 0 | 0.0 | 0.0 | 0.00 | 0.00 | 0.00 | 85 | 1015.3 |
| 20260906064550 | 13 | 0 | 0.0 | 0.0 | 0.00 | 0.00 | 0.00 | 85 | 1015.4 |
| 20260906063053 | 13 | 174 | 0.0 | 0.0 | 0.00 | 0.00 | 0.00 | 84 | 1015.3 |
| 20260906061557 | 14 | 0 | 0.0 | 4.8 | 0.00 | 0.00 | 0.00 | 83 | 1015.5 |
| 20260906060055 | 14 | 140 | 0.0 | 4.8 | 0.00 | 0.00 | 0.00 | 82 | 1015.6 |
| 20260906054556 | 14 | 0 | 1.6 | 4.8 | 0.00 | 0.00 | 0.00 | 82 | 1015.6 |
| 20260906053054 | 14 | 176 | 1.6 | 6.4 | 0.00 | 0.00 | 0.00 | 81 | 1015.5 |
| 20260906051602 | 14 | 176 | 1.6 | 4.8 | 0.00 | 0.00 | 0.00 | 80 | 1015.5 |
| 20260906050055 | 14 | 138 | 1.6 | 4.8 | 0.00 | 0.00 | 0.00 | 81 | 1015.7 |
| 20260906044550 | 15 | 0 | 0.0 | 3.2 | 0.00 | 0.00 | 0.00 | 80 | 1015.6 |
| 20260906043052 | 15 | 109 | 3.2 | 4.8 | 0.00 | 0.00 | 0.00 | 81 | 1015.9 |
| 20260906041556 | 15 | 0 | 0.0 | 6.4 | 0.00 | 0.00 | 0.00 | 80 | 1015.8 |
| 20260906040101 | 15 | 0 | 0.0 | 0.0 | 0.00 | 0.00 | 0.00 | 77 | 1015.8 |
| 20260906034554 | 15 | 0 | 0.0 | 0.0 | 0.00 | 0.00 | 0.00 | 76 | 1015.6 |
| 20260906033052 | 16 | 0 | 0.0 | 0.0 | 0.00 | 0.00 | 0.00 | 76 | 1015.4 |
| 20260906031553 | 16 | 0 | 0.0 | 1.6 | 0.00 | 0.00 | 0.00 | 72 | 1015.3 |
| 20260906030055 | 17 | 0 | 0.0 | 0.0 | 0.00 | 0.00 | 0.00 | 71 | 1015.1 |
| 20260906024635 | 17 | 0 | 0.0 | 0.0 | 0.00 | 0.00 | 0.00 | 66 | 1015.1 |
| 20260906023053 | 18 | 0 | 0.0 | 0.0 | 0.00 | 0.00 | 0.00 | 64 | 1015.1 |
| 20260906021555 | 18 | 0 | 0.0 | 0.0 | 0.00 | 0.00 | 0.00 | 62 | 1015.1 |
| 20260906020050 | 18 | 0 | 0.0 | 3.2 | 0.00 | 0.00 | 0.00 | 61 | 1015.3 |
| 20260906014602 | 20 | 0 | 0.0 | 6.4 | 0.00 | 0.00 | 0.00 | 58 | 1015.3 |
| 20260906013047 | 20 | 82 | 1.6 | 6.4 | 0.00 | 0.00 | 0.00 | 58 | 1015.2 |
| 20260906011558 | 20 | 0 | 1.6 | 6.4 | 0.00 | 0.00 | 0.00 | 56 | 1015.3 |
| 20260906010108 | 20 | 0 | 0.0 | 3.2 | 0.00 | 0.00 | 0.00 | 57 | 1015.3 |
| 20260906004553 | 20 | 92 | 3.2 | 11.3 | 0.00 | 0.00 | 0.00 | 54 | 1015.3 |
| 20260906003111 | 21 | 72 | 4.8 | 11.3 | 0.00 | 0.00 | 0.00 | 51 | 1015.3 |
| 20260906001556 | 21 | 113 | 1.6 | 6.4 | 0.00 | 0.00 | 0.00 | 46 | 1015.4 |
| 20260905234553 | 21 | 71 | 3.2 | 11.3 | 0.00 | 0.03 | 0.00 | 53 | 1015.3 |
| 20260905233043 | 22 | 286 | 4.8 | 12.9 | 0.00 | 0.03 | 0.00 | 49 | 1015.4 |
| 20260905231553 | 22 | 287 | 1.6 | 11.3 | 0.00 | 0.03 | 0.00 | 46 | 1015.5 |
| 20260905230049 | 22 | 343 | 4.8 | 16.1 | 0.00 | 0.03 | 0.00 | 46 | 1015.5 |
| 20260905224553 | 22 | 5 | 4.8 | 12.9 | 0.00 | 0.05 | 0.00 | 48 | 1015.6 |
| 20260905223053 | 22 | 278 | 3.2 | 9.7 | 0.00 | 0.05 | 0.00 | 51 | 1015.6 |
| 20260905221553 | 21 | 304 | 1.6 | 6.4 | 0.00 | 0.05 | 0.00 | 48 | 1015.7 |
| 20260905220056 | 21 | 140 | 1.6 | 8.0 | 0.00 | 0.05 | 0.00 | 48 | 1015.8 |
| 20260905214600 | 21 | 0 | 3.2 | 11.3 | 0.00 | 0.05 | 0.00 | 48 | 1015.9 |
| 20260905213054 | 21 | 272 | 1.6 | 8.0 | 0.00 | 0.05 | 0.00 | 49 | 1016.0 |
| 20260905211556 | 21 | 0 | 0.0 | 9.7 | 0.00 | 0.05 | 0.00 | 52 | 1015.9 |
| 20260905210052 | 21 | 217 | 4.8 | 12.9 | 0.00 | 0.05 | 0.00 | 52 | 1016.0 |
| 20260905204558 | 22 | 242 | 3.2 | 11.3 | 0.00 | 0.05 | 0.00 | 52 | 1016.3 |
| 20260905203057 | 20 | 172 | 1.6 | 11.3 | 0.00 | 0.05 | 0.00 | 58 | 1016.4 |
| 20260905201552 | 20 | 306 | 6.4 | 12.9 | 0.00 | 0.05 | 0.00 | 60 | 1016.5 |
| 20260905200100 | 19 | 314 | 3.2 | 9.7 | 0.00 | 0.05 | 0.00 | 63 | 1016.4 |
| 20260905194549 | 19 | 253 | 4.8 | 12.9 | 0.00 | 0.05 | 0.00 | 65 | 1016.5 |
| 20260905193107 | 18 | 255 | 3.2 | 11.3 | 0.00 | 0.05 | 0.00 | 68 | 1016.7 |
| 20260905191558 | 18 | 29 | 1.6 | 11.3 | 0.00 | 0.05 | 0.00 | 68 | 1016.9 |
| 20260905190100 | 17 | 334 | 1.6 | 12.9 | 0.00 | 0.05 | 0.00 | 67 | 1017.1 |
| 20260905184555 | 17 | 335 | 1.6 | 8.0 | 0.00 | 0.05 | 0.00 | 73 | 1017.2 |
| 20260905183058 | 17 | 278 | 4.8 | 12.9 | 0.00 | 0.05 | 0.00 | 74 | 1017.4 |
| 20260905181554 | 17 | 253 | 1.6 | 8.0 | 0.00 | 0.05 | 0.00 | 75 | 1017.6 |
| 20260905180108 | 17 | 0 | 6.4 | 9.7 | 0.00 | 0.05 | 0.00 | 74 | 1017.5 |
| 20260905174558 | 16 | 0 | 3.2 | 9.7 | 0.00 | 0.05 | 0.00 | 76 | 1017.5 |
| 20260905173052 | 16 | 74 | 1.6 | 4.8 | 0.00 | 0.05 | 0.00 | 87 | 1017.6 |
| 20260905171559 | 13 | 0 | 0.0 | 0.0 | 0.00 | 0.05 | 0.00 | 89 | 1017.7 |
| 20260905170058 | 13 | 0 | 0.0 | 0.0 | 0.00 | 0.05 | 0.00 | 90 | 1017.7 |
| 20260905164555 | 13 | 0 | 0.0 | 0.0 | 0.00 | 0.05 | 0.00 | 91 | 1017.7 |
| 20260905163101 | 12 | 0 | 0.0 | 0.0 | 0.00 | 0.05 | 0.00 | 91 | 1017.7 |
| 20260905161558 | 12 | 0 | 0.0 | 3.2 | 0.00 | 0.05 | 0.00 | 92 | 1017.7 |
| 20260905160058 | 12 | 0 | 0.0 | 0.0 | 0.00 | 0.05 | 0.00 | 92 | 1017.7 |
| 20260905154556 | 11 | 0 | 0.0 | 0.0 | 0.00 | 0.05 | 0.00 | 92 | 1017.8 |
| 20260905153058 | 11 | 0 | 0.0 | 0.0 | 0.00 | 0.05 | 0.00 | 93 | 1017.8 |
| 20260905151554 | 11 | 0 | 0.0 | 0.0 | 0.00 | 0.05 | 0.00 | 93 | 1017.8 |
| 20260905150058 | 11 | 0 | 0.0 | 4.8 | 0.00 | 0.05 | 0.00 | 93 | 1017.9 |
| 20260905144602 | 11 | 0 | 0.0 | 0.0 | 0.00 | 0.05 | 0.00 | 93 | 1017.7 |
| 20260905143056 | 10 | 0 | 0.0 | 0.0 | 0.00 | 0.05 | 0.00 | 93 | 1017.6 |
| 20260905141550 | 10 | 0 | 0.0 | 0.0 | 0.00 | 0.05 | 0.00 | 93 | 1017.6 |
| 20260905140100 | 10 | 0 | 0.0 | 0.0 | 0.00 | 0.05 | 0.00 | 92 | 1017.6 |
| 20260905134558 | 10 | 0 | 0.0 | 0.0 | 0.00 | 0.05 | 0.00 | 92 | 1017.4 |
| 20260905133052 | 11 | 0 | 0.0 | 0.0 | 0.00 | 0.05 | 0.00 | 91 | 1017.4 |
| 20260905131552 | 11 | 0 | 0.0 | 0.0 | 0.00 | 0.05 | 0.00 | 91 | 1017.3 |
| 20260905130053 | 11 | 0 | 0.0 | 0.0 | 0.00 | 0.05 | 0.00 | 91 | 1017.2 |